Wind_Speed
25 22 19 16 12 10 11 14 15 14 13 11 10 8 9 10 9 11 13 12 12 12 12 10 9 9 9 9 8 9 11 11 13 15 16 18 20 23 22 23 25 26 28 29 31 33 34 36 38
27 23 21 17 14 14 13 13 11 12 12 11 9 10 11 11 12 13 15 16 14 13 11 10 10 10 9 9 9 11 13 14 16 17 18 20 22 23 24 25 27 29 31 34 35 37 39 40 42
28 25 23 19 18 15 14 12 14 12 11 9 10 11 12 12 13 14 16 16 14 12 11 11 11 11 10 11 11 12 14 15 16 17 18 20 23 25 26 28 30 32 35 37 39 40 42 44 47
29 27 23 21 20 16 14 12 11 11 9 10 11 11 11 13 15 15 14 15 14 12 11 12 12 12 11 11 12 13 15 16 15 16 18 20 23 25 27 30 31 34 35 37 40 43 45 49 52
30 28 24 23 21 18 15 13 12 9 8 8 10 11 11 11 13 15 13 13 15 14 13 14 15 12 11 12 13 14 15 14 14 17 19 22 24 26 28 30 32 34 38 40 43 46 51 56 60
29 28 24 25 24 19 16 13 9 7 8 7 11 11 11 11 12 11 12 13 14 13 14 15 14 11 11 12 14 15 14 13 14 17 19 21 24 26 29 31 34 37 39 43 48 54 60 62 61
33 28 27 28 25 21 19 17 13 8 8 8 10 12 11 9 10 10 10 11 11 11 12 13 11 8 10 13 15 13 13 12 15 16 18 21 24 27 29 32 36 39 43 49 54 56 56 56 57
37 35 32 29 26 23 20 18 15 15 9 14 16 14 12 11 10 9 9 9 10 10 11 11 8 9 10 13 14 12 13 12 13 15 19 23 26 28 31 34 37 42 49 52 52 55 57 56 55
41 35 30 30 29 26 22 18 15 15 12 15 16 20 17 12 9 8 9 9 11 12 12 11 9 9 10 13 13 13 12 11 12 17 22 25 28 30 33 36 39 46 49 49 56 54 53 46 40
39 33 30 27 29 28 23 21 18 18 18 26 20 18 17 12 10 9 9 10 13 13 13 11 10 11 12 13 13 12 11 11 13 19 23 26 29 31 34 37 42 47 43 42 43 41 41 39 40
35 33 38 41 40 35 28 25 22 20 23 25 22 17 17 13 11 12 11 12 14 15 14 13 12 12 13 13 13 11 10 11 15 20 25 27 29 32 35 38 44 40 40 43 42 39 40 37 37
43 34 38 38 37 35 29 30 27 24 32 25 19 19 16 14 13 14 14 13 14 15 14 13 13 13 13 13 13 12 12 12 16 21 26 28 30 32 34 39 42 40 36 41 40 39 38 37 37
40 39 38 35 33 34 34 34 30 28 33 23 20 20 17 16 16 16 15 12 13 13 13 13 13 14 14 14 13 13 13 14 18 22 27 29 31 33 33 39 37 38 33 34 36 35 38 38 41
39 38 38 40 35 35 35 33 29 38 33 25 24 20 20 18 18 17 15 13 13 12 13 14 14 14 15 15 14 14 14 16 20 24 28 30 31 33 33 39 34 35 32 31 35 34 34 37 43
37 37 36 37 36 36 37 33 29 33 36 34 27 22 23 22 22 20 16 14 14 12 12 13 14 15 16 16 15 14 15 18 21 24 28 30 31 32 32 36 32 29 29 27 30 31 30 30 35
36 38 35 35 35 38 42 30 32 34 30 26 25 22 25 25 24 21 18 16 16 14 13 14 15 15 17 17 16 16 17 20 22 24 28 30 31 31 30 34 29 28 26 26 26 28 27 24 26
41 31 33 35 35 39 42 31 37 39 33 26 26 26 27 25 25 22 21 19 17 16 15 15 15 15 16 17 17 18 20 23 24 25 27 30 30 29 29 33 24 29 23 23 25 22 24 20 17
32 37 39 42 42 41 42 40 35 36 30 27 28 28 27 28 26 24 22 21 19 18 16 17 16 16 15 16 17 19 23 24 24 25 27 29 29 28 26 31 24 25 26 19 20 21 22 23 17
33 34 38 40 41 43 40 34 29 33 30 31 29 29 29 28 27 25 24 23 21 19 18 18 18 18 16 16 17 20 23 23 23 24 26 28 27 26 24 28 24 20 23 21 19 21 22 21 19
38 34 36 36 39 42 39 32 29 34 36 32 31 29 28 29 27 25 24 23 22 19 18 19 20 19 18 17 17 18 21 23 23 24 25 27 26 25 23 24 24 20 20 22 22 21 18 16 15
26 27 31 35 31 36 30 23 35 35 33 31 30 29 29 30 28 25 24 22 22 21 19 21 22 20 18 18 17 19 20 21 23 24 24 25 25 23 22 21 24 19 19 20 21 20 20 16 12
26 25 29 28 27 26 25 25 26 32 33 31 29 29 29 29 27 26 25 23 23 23 22 22 22 21 19 18 18 19 20 22 22 24 24 24 25 23 21 20 20 19 16 18 19 18 18 13 12
31 31 32 32 31 29 26 24 26 30 32 32 31 29 30 28 26 25 25 24 25 25 24 22 22 22 21 21 21 22 22 23 23 24 24 24 24 23 20 19 18 20 17 14 16 17 14 12 9
35 34 33 32 32 33 27 26 24 29 30 32 30 27 28 28 26 25 24 24 25 25 25 25 24 24 23 22 24 24 24 25 25 25 25 25 25 23 21 18 17 17 18 14 11 11 13 10 10
36 35 35 35 34 33 27 29 25 28 30 29 29 26 27 28 27 27 27 27 26 26 26 25 25 25 23 24 25 26 26 26 27 27 26 27 26 25 23 20 17 17 17 17 12 10 8 8 8
38 37 37 37 36 35 31 31 27 26 30 29 27 27 27 28 28 28 28 29 29 28 27 27 27 27 27 27 27 26 27 27 29 31 28 27 29 28 25 23 20 17 16 16 14 11 8 5 6
37 38 36 38 38 37 35 32 28 26 30 30 28 28 29 31 32 31 32 33 33 31 29 29 29 30 29 29 30 29 25 26 29 32 32 30 29 30 28 24 23 20 18 16 16 15 13 11 7
41 38 38 39 39 40 38 34 32 29 28 30 30 30 30 30 32 34 34 36 35 34 33 33 33 32 31 31 32 34 31 29 29 30 31 31 31 31 30 27 25 24 22 20 18 17 18 16 13
44 43 42 40 42 41 42 40 35 33 32 31 31 32 32 32 33 34 35 37 36 36 36 36 37 36 34 33 33 34 32 32 33 33 33 32 31 31 31 30 28 27 26 24 22 20 19 20 19
46 44 45 47 46 45 45 45 42 39 36 36 35 36 36 36 37 38 39 38 38 38 38 35 35 36 35 35 36 38 38 38 38 40 39 37 34 33 32 32 31 30 29 28 26 25 23 22 21
Wind_Direction
198 199 206 216 209 196 178 181 186 190 196 200 209 225 248 262 278 281 289 290 299 305 307 303 289 299 299 301 292 288 292 293 298 299 300 303 304 303 303 301 300 300 301 300 298 298 296 295 293
200 198 205 214 206 197 184 189 188 200 203 207 222 236 251 268 274 285 292 294 300 300 301 292 280 291 293 291 285 287 291 295 295 293 296 302 304 304 302 303 302 302 301 300 297 295 294 293 290
200 199 205 212 206 200 196 190 197 201 212 214 232 245 255 269 277 279 287 293 297 297 294 289 286 292 295 294 289 284 291 295 293 291 298 302 303 304 306 305 304 303 300 299 298 296 295 292 289
202 203 205 209 207 199 199 196 204 207 208 226 237 248 260 271 277 280 288 297 300 296 286 284 287 292 293 295 297 286 290 292 288 290 299 302 305 305 306 304 303 302 302 301 299 297 295 291 287
206 206 206 208 206 201 202 199 206 219 221 230 246 252 258 267 277 285 294 302 300 299 295 289 289 290 289 292 297 293 290 290 291 298 302 307 307 307 308 308 308 306 304 302 300 297 293 288 284
202 210 207 213 208 201 201 208 215 220 239 242 250 254 264 270 278 288 303 302 301 299 296 291 290 294 289 293 298 294 289 290 296 301 306 310 312 314 313 312 309 308 308 306 303 297 290 288 286
202 211 210 212 209 200 202 209 211 230 261 273 266 267 265 273 285 293 305 307 308 307 306 307 302 284 285 293 295 291 288 293 300 307 316 321 322 319 317 315 314 313 311 308 303 298 296 292 287
207 204 211 214 207 208 208 215 231 260 244 251 257 278 274 272 283 297 303 311 313 310 311 315 299 278 282 294 292 292 293 298 309 321 326 328 323 322 320 319 318 318 315 310 308 308 304 294 287
207 200 207 211 207 211 215 217 249 242 234 253 262 277 271 276 281 287 300 311 312 315 312 312 292 279 284 292 295 294 296 306 320 328 329 324 323 324 324 322 322 321 318 322 324 315 309 307 298
212 203 204 208 210 212 220 227 229 241 241 255 252 259 264 270 269 280 291 302 306 314 309 293 291 272 276 293 294 289 296 306 323 325 325 324 327 328 326 325 328 325 328 337 335 333 320 308 299
208 207 213 218 218 224 219 228 230 227 252 247 254 252 258 260 266 278 289 295 304 313 311 293 277 276 276 289 291 287 294 305 321 323 327 328 329 331 327 331 330 329 335 329 332 336 331 321 308
211 208 215 211 215 217 223 224 221 235 247 240 253 251 255 258 264 274 283 291 301 311 310 296 276 272 274 284 285 283 293 308 315 322 328 330 332 332 331 335 335 337 338 335 335 338 339 336 331
206 209 211 216 216 224 227 222 216 235 242 242 255 252 255 254 258 266 278 282 292 306 312 299 285 275 274 280 276 280 295 305 313 319 327 332 334 333 334 337 340 342 343 339 341 346 350 348 349
206 209 214 216 221 222 221 216 219 236 239 242 256 249 249 250 253 260 270 276 283 302 311 301 284 274 272 275 269 278 292 302 311 318 326 333 333 335 336 341 344 346 345 342 343 353 355 358 1
205 210 217 222 220 218 218 214 220 245 251 252 250 248 246 246 248 254 266 278 278 288 303 302 291 277 274 275 269 278 292 302 310 317 325 333 334 336 339 344 347 350 343 342 346 355 0 9 10
201 210 215 219 220 218 215 224 238 257 252 245 250 247 243 245 246 252 264 269 275 277 291 304 302 285 278 276 269 278 291 300 309 315 324 331 334 337 341 347 351 349 345 347 350 4 0 18 22
199 208 219 222 226 219 222 232 250 254 245 249 247 244 241 247 247 250 260 268 274 274 276 292 305 300 284 280 273 278 288 297 307 314 322 329 334 337 343 348 349 347 334 346 349 12 3 17 25
215 219 227 232 233 228 235 239 254 253 241 245 242 244 243 243 247 248 256 267 271 272 268 278 294 303 299 282 274 280 288 296 304 311 319 327 334 336 343 346 352 346 336 349 355 8 10 16 30
218 223 228 231 233 238 238 248 251 250 240 243 242 244 242 242 246 246 253 263 266 270 267 268 280 292 298 294 283 286 293 297 302 309 315 324 332 335 342 346 352 350 336 347 359 2 360 19 21
217 225 231 237 240 241 247 249 236 244 244 241 242 240 245 246 249 250 253 261 268 267 265 262 269 280 291 291 291 293 296 297 301 305 312 321 329 334 338 345 347 350 335 326 337 354 358 9 10
212 219 227 236 239 246 246 237 234 241 248 243 239 242 243 246 250 254 258 262 265 265 262 262 267 272 281 284 288 291 295 296 301 303 309 317 326 331 334 340 345 344 341 333 337 350 351 354 355
223 225 224 230 236 239 241 230 228 238 244 245 244 244 243 242 249 254 257 258 259 261 261 261 266 270 276 285 289 293 295 296 299 300 306 313 321 327 329 333 343 338 338 340 337 351 347 345 336
224 226 233 236 241 245 245 241 221 234 243 250 249 244 247 246 247 251 254 253 254 255 257 259 261 265 272 279 285 290 293 295 297 299 302 308 315 321 324 327 334 338 333 331 341 354 358 348 336
226 228 233 238 243 245 245 248 223 222 235 244 246 243 241 248 249 249 250 253 254 254 257 258 259 264 273 282 286 289 292 295 296 297 300 303 308 314 316 318 322 330 334 324 322 340 2 347 330
230 231 236 239 240 245 241 246 240 225 225 237 244 246 242 246 250 249 250 252 253 255 260 262 264 266 271 279 285 290 292 296 299 298 298 300 304 308 310 310 311 317 326 326 315 315 336 352 324
232 235 238 241 243 247 243 245 243 234 233 234 240 242 246 249 250 252 255 258 260 260 260 260 263 268 273 274 279 285 290 294 298 299 299 299 301 304 305 304 303 302 309 319 311 297 303 315 310
233 237 241 245 246 247 246 245 247 241 236 242 243 242 240 242 246 250 253 257 260 263 265 263 263 263 264 269 273 275 281 286 292 296 299 300 299 299 301 299 297 295 293 300 307 294 284 283 294
238 237 239 244 248 251 253 249 247 246 240 240 244 244 244 242 242 245 249 251 256 261 263 264 265 266 267 269 270 272 273 276 280 284 291 296 296 295 295 296 292 290 287 284 288 294 286 275 274
237 238 242 245 247 251 255 254 252 251 250 247 244 246 246 246 246 248 250 253 255 257 260 261 264 265 264 264 268 272 275 280 283 285 283 284 287 289 290 292 288 285 284 280 277 280 287 281 272
239 239 241 242 244 248 252 255 257 253 251 252 250 248 249 249 250 251 253 255 257 258 256 256 259 260 262 264 267 273 278 281 284 285 280 277 278 279 283 285 284 281 279 278 273 270 273 278 275
Height
5836 5838 5842 5844 5848 5846 5846 5848 5849 5851 5852 5853 5855 5856 5857 5857 5857 5859 5856 5855 5854 5854 5853 5852 5852 5851 5851 5850 5850 5849 5848 5847 5847 5847 5845 5844 5842 5840 5838 5836 5834 5832 5830 5827 5825 5823 5821 5819 5816
5833 5836 5840 5842 5845 5845 5845 5846 5849 5850 5851 5852 5853 5854 5854 5855 5855 5854 5854 5854 5853 5852 5850 5849 5849 5849 5849 5848 5847 5847 5846 5846 5845 5844 5842 5841 5838 5837 5835 5832 5830 5827 5824 5821 5819 5816 5814 5811 5808
5830 5833 5838 5840 5841 5842 5843 5844 5846 5849 5851 5850 5851 5852 5852 5854 5853 5852 5852 5852 5851 5850 5849 5848 5848 5847 5847 5847 5846 5845 5844 5843 5842 5841 5840 5837 5835 5833 5831 5828 5825 5822 5819 5816 5812 5808 5805 5802 5799
5827 5832 5836 5838 5838 5840 5842 5843 5845 5847 5847 5849 5849 5850 5851 5851 5851 5850 5849 5850 5849 5848 5847 5846 5846 5845 5844 5844 5843 5842 5842 5840 5839 5838 5837 5835 5832 5830 5826 5823 5820 5817 5813 5809 5805 5800 5796 5792 5787
5824 5829 5832 5834 5835 5837 5840 5841 5843 5845 5846 5847 5847 5848 5848 5849 5849 5849 5847 5847 5846 5845 5845 5844 5843 5842 5843 5841 5841 5840 5838 5837 5836 5835 5833 5831 5828 5825 5822 5818 5814 5810 5806 5801 5796 5791 5785 5779 5774
5822 5826 5829 5831 5832 5835 5837 5839 5841 5842 5844 5845 5845 5846 5847 5847 5847 5846 5845 5845 5844 5843 5842 5841 5840 5840 5840 5839 5838 5837 5836 5835 5833 5832 5830 5827 5825 5821 5817 5813 5808 5804 5799 5793 5786 5779 5770 5763 5757
5818 5823 5825 5827 5830 5832 5833 5835 5838 5839 5842 5843 5842 5844 5845 5844 5844 5844 5844 5844 5843 5842 5840 5839 5838 5838 5837 5836 5835 5834 5833 5832 5831 5829 5827 5824 5821 5817 5812 5807 5803 5797 5790 5783 5774 5764 5755 5747 5741
5814 5819 5822 5824 5827 5829 5830 5832 5836 5839 5838 5841 5842 5843 5843 5841 5841 5842 5842 5842 5840 5839 5837 5836 5836 5835 5835 5834 5833 5832 5831 5830 5828 5826 5823 5820 5817 5812 5807 5802 5795 5788 5780 5771 5761 5751 5740 5731 5724
5808 5814 5817 5820 5822 5825 5827 5830 5834 5837 5837 5839 5839 5841 5839 5840 5841 5841 5840 5839 5838 5836 5835 5835 5833 5833 5832 5831 5830 5829 5829 5827 5825 5823 5820 5817 5813 5807 5801 5795 5789 5780 5770 5761 5750 5738 5726 5716 5708
5805 5810 5811 5816 5819 5822 5824 5827 5831 5833 5835 5835 5838 5838 5838 5838 5839 5839 5837 5837 5835 5833 5832 5831 5831 5830 5829 5828 5827 5826 5826 5824 5822 5820 5816 5813 5808 5802 5796 5789 5782 5772 5763 5753 5740 5728 5716 5705 5696
5801 5806 5805 5809 5813 5818 5821 5826 5829 5830 5830 5831 5836 5835 5835 5836 5836 5837 5835 5835 5833 5832 5830 5828 5827 5828 5826 5825 5825 5824 5823 5821 5819 5816 5813 5809 5803 5797 5791 5784 5775 5765 5756 5746 5733 5719 5707 5695 5684
5796 5800 5803 5805 5809 5814 5819 5822 5825 5827 5822 5829 5832 5831 5833 5833 5834 5834 5833 5832 5831 5829 5827 5826 5825 5824 5824 5823 5822 5821 5821 5818 5816 5813 5810 5805 5799 5793 5786 5779 5769 5760 5751 5741 5728 5714 5701 5688 5672
5791 5794 5797 5801 5806 5811 5815 5818 5823 5821 5819 5827 5827 5828 5830 5830 5832 5832 5832 5830 5828 5826 5825 5823 5823 5823 5821 5821 5820 5819 5818 5816 5813 5810 5806 5801 5795 5789 5782 5774 5764 5756 5747 5737 5724 5711 5697 5683 5666
5786 5789 5793 5798 5802 5806 5811 5814 5819 5811 5819 5822 5823 5825 5826 5828 5828 5829 5828 5827 5825 5824 5823 5820 5819 5819 5818 5817 5816 5816 5815 5812 5810 5807 5803 5798 5792 5786 5779 5770 5761 5752 5744 5734 5723 5709 5696 5683 5669
5779 5784 5788 5793 5797 5802 5805 5811 5812 5810 5813 5818 5820 5821 5822 5824 5823 5825 5825 5824 5822 5821 5819 5818 5817 5815 5815 5815 5814 5813 5811 5809 5807 5804 5800 5795 5789 5783 5776 5766 5758 5751 5742 5733 5722 5711 5700 5687 5677
5775 5778 5783 5788 5792 5797 5800 5804 5806 5808 5809 5814 5816 5817 5817 5818 5819 5821 5821 5820 5819 5818 5817 5816 5814 5812 5812 5811 5810 5810 5809 5806 5803 5800 5796 5792 5787 5781 5773 5764 5757 5750 5742 5734 5724 5714 5703 5692 5684
5765 5774 5778 5782 5786 5791 5795 5800 5801 5804 5807 5809 5809 5810 5812 5814 5816 5816 5816 5816 5815 5814 5814 5813 5811 5810 5808 5808 5808 5807 5805 5803 5800 5797 5793 5788 5784 5778 5770 5762 5756 5749 5742 5735 5726 5718 5709 5699 5691
5765 5770 5773 5776 5781 5785 5788 5796 5797 5797 5803 5803 5802 5803 5807 5809 5809 5811 5811 5812 5811 5811 5810 5810 5809 5807 5805 5804 5803 5803 5802 5799 5797 5794 5790 5785 5781 5775 5769 5761 5755 5749 5742 5737 5729 5723 5715 5708 5701
5760 5765 5769 5772 5776 5779 5784 5791 5792 5790 5795 5796 5797 5798 5802 5803 5804 5805 5807 5807 5806 5806 5806 5806 5805 5804 5801 5800 5799 5798 5797 5795 5793 5790 5786 5783 5778 5773 5768 5761 5754 5749 5743 5738 5733 5727 5720 5715 5709
5755 5759 5762 5765 5768 5772 5778 5786 5786 5783 5787 5790 5791 5793 5796 5798 5800 5802 5803 5803 5802 5802 5802 5801 5799 5799 5797 5796 5796 5794 5792 5791 5789 5786 5783 5779 5775 5771 5766 5760 5754 5749 5744 5739 5734 5731 5724 5720 5715
5749 5755 5758 5759 5762 5767 5772 5778 5779 5778 5779 5784 5785 5788 5791 5793 5794 5796 5798 5798 5798 5798 5797 5796 5795 5794 5792 5791 5790 5789 5788 5786 5785 5783 5780 5776 5772 5768 5764 5760 5754 5749 5745 5740 5735 5732 5728 5724 5720
5745 5751 5754 5755 5758 5761 5766 5772 5773 5772 5773 5777 5780 5782 5785 5787 5790 5791 5792 5792 5792 5792 5792 5792 5791 5791 5789 5787 5786 5784 5783 5782 5780 5779 5775 5772 5769 5765 5762 5758 5753 5749 5745 5741 5736 5732 5729 5725 5723
5741 5744 5748 5751 5752 5756 5761 5764 5768 5768 5769 5771 5774 5777 5778 5781 5783 5786 5787 5787 5787 5786 5786 5787 5787 5786 5784 5783 5782 5779 5777 5777 5775 5774 5772 5768 5766 5762 5759 5755 5752 5748 5745 5741 5737 5733 5730 5727 5723
5736 5738 5741 5744 5747 5748 5755 5757 5762 5763 5764 5764 5767 5770 5772 5774 5776 5778 5779 5781 5782 5781 5781 5780 5780 5780 5779 5778 5777 5776 5773 5771 5771 5770 5768 5764 5762 5759 5756 5753 5750 5747 5743 5740 5737 5734 5731 5728 5725
5730 5733 5735 5738 5739 5742 5748 5749 5754 5757 5759 5760 5761 5763 5766 5768 5770 5771 5772 5773 5774 5775 5776 5776 5776 5775 5773 5772 5772 5771 5769 5767 5766 5764 5763 5761 5758 5756 5752 5750 5747 5744 5741 5738 5736 5734 5731 5728 5726
5722 5726 5729 5728 5732 5735 5740 5741 5747 5750 5752 5755 5756 5758 5760 5761 5762 5764 5765 5766 5767 5767 5767 5768 5768 5769 5769 5767 5766 5765 5764 5763 5761 5759 5758 5757 5754 5752 5749 5745 5743 5741 5738 5736 5734 5732 5730 5727 5725
5715 5718 5723 5725 5726 5728 5732 5736 5739 5743 5746 5748 5750 5751 5752 5754 5755 5756 5757 5757 5759 5759 5760 5760 5761 5761 5761 5761 5760 5758 5756 5756 5754 5753 5752 5751 5749 5747 5744 5742 5739 5737 5735 5732 5730 5729 5728 5726 5724
5707 5713 5715 5717 5719 5721 5723 5729 5731 5735 5739 5741 5743 5743 5746 5746 5747 5748 5748 5749 5750 5751 5752 5753 5753 5752 5751 5753 5752 5752 5748 5747 5747 5746 5745 5744 5743 5741 5739 5737 5734 5732 5731 5728 5727 5725 5724 5723 5721
5700 5704 5708 5711 5712 5714 5717 5719 5725 5727 5729 5732 5734 5735 5737 5738 5739 5739 5740 5741 5741 5741 5742 5742 5743 5744 5743 5741 5742 5743 5740 5739 5739 5739 5738 5736 5735 5734 5733 5731 5729 5727 5725 5723 5722 5720 5719 5718 5717
5690 5695 5698 5701 5704 5705 5709 5712 5715 5717 5720 5722 5725 5726 5727 5728 5730 5731 5731 5732 5732 5733 5732 5732 5733 5734 5735 5733 5731 5732 5732 5730 5730 5730 5729 5728 5726 5726 5725 5724 5722 5720 5718 5717 5715 5714 5714 5712 5712